Location: Corona
(40.7470°N, 73.8601°W)
Time: 11:27:27
(UTC+00:00)

CSL-04 Rocket - Pass Details

Date: 22 September 2019
Orbit: 806 x 860 km, 99.0° (Epoch: 21 October)

Event Time Altitude Azimuth Distance (km) Brightness Sun altitude
Rises 23:40:22 0° 174° (S) 3,391 6.7 -9.8°
Reaches altitude 10° 23:42:45 10° 178° (S) 2,467 6.0 -10.2°
Maximum altitude 23:48:10 61° 258° (WSW) 969 4.3 -11.2°
Drops below altitude 10° 23:53:40 10° 339° (NNW) 2,503 6.6 -12.3°
Sets 23:56:06 0° 343° (NNW) 3,446 7.3 -12.7°
